Stations météo

réclame
Mon MeteoGroup
Aachen-Orsbach, Allemagne (10505): Température de l'air & dewpoint: 13.03.2019 03:00:00 - 19.03.2019 03:00:00 (CET)Aachen-Orsbach, Allemagne (10505): Température de l'air 5cm & Température de l'air -5cm: 13.03.2019 03:00:00 - 19.03.2019 03:00:00 (CET)Aachen-Orsbach, Allemagne (10505): Température de l'air -20cm & Température de l'air -100cm: 13.03.2019 03:00:00 - 19.03.2019 03:00:00 (CET)Aachen-Orsbach, Allemagne (10505): Vitesse du vent & gusts: 13.03.2019 03:00:00 - 19.03.2019 03:00:00 (CET)Aachen-Orsbach, Allemagne (10505): Direction du vent: 13.03.2019 03:00:00 - 19.03.2019 03:00:00 (CET)Aachen-Orsbach, Allemagne (10505): reduced air pressure: 13.03.2019 03:00:00 - 19.03.2019 03:00:00 (CET)Aachen-Orsbach, Allemagne (10505): visibility: 13.03.2019 03:00:00 - 19.03.2019 03:00:00 (CET)Aachen-Orsbach, Allemagne (10505): Ensoleillement: 13.03.2019 03:00:00 - 19.03.2019 03:00:00 (CET)Aachen-Orsbach, Allemagne (10505): Quantités de précipitations: 13.03.2019 03:00:00 - 19.03.2019 03:00:00 (CET)
Date & Time tt [°C] td [°C] tt 5cm [°C] tt -5cm [°C] tt -20cm [°C] tt -100cm [°C] ff [km/h] ff [knt] fx [km/h] fx [knt] dd ppp [hPa] vv [km] sd [min] rr [mm]
19.03.2019 03:00:00 -0,1 -3,1 -4,4 1,6 5,0 6,9 10 5 11 6 SSW 1026,4 44 0 0,0
19.03.2019 02:00:00 0,2 -3,2 -3,5 1,7 5,1 6,9 8 4 10 5 SW 1026,2 50 0 0,0
19.03.2019 01:00:00 1,5 -3,1 -3,4 1,9 5,3 6,9 6 4 9 5 WSW 1025,8 53 0 0,0
19.03.2019 00:00:00 2,3 -3,2 -4,4 2,1 5,5 6,9 5 3 8 5 WSW 1025,5 54 0 0,0
18.03.2019 23:00:00 2,2 -3,1 -3,3 2,3 5,7 6,9 6 4 8 4 WSW 1025,1 55 0 0,0
18.03.2019 22:00:00 1,8 -3,1 -3,2 2,6 5,9 6,9 6 3 9 5 W 1024,4 54 0 0,0
18.03.2019 21:00:00 2,7 -3,7 -3,1 3,1 6,0 6,9 7 4 11 6 WNW 1023,7 63 0 0,0
18.03.2019 20:00:00 3,4 -3,6 -1,7 4,3 6,1 6,9 8 4 16 9 NW 1023,1 67 0 0,0
18.03.2019 19:00:00 4,7 -3,0 3,5 5,3 6,1 6,9 13 7 21 11 WNW 1022,1 65 1 0,0
18.03.2019 18:00:00 5,8 -2,0 4,9 6,7 6,0 6,9 16 9 27 15 WNW 1021,1 61 5 0,0
18.03.2019 17:00:00 7,0 -2,0 6,9 8,3 5,8 6,9 20 11 34 18 WNW 1020,5 75 48 0,0
18.03.2019 16:00:00 6,8 0,7 8,1 7,4 5,7 6,9 16 9 29 15 WSW 1020,1 48 12 0,0
18.03.2019 15:00:00 6,8 1,8 8,8 6,8 5,6 6,9 15 8 40 21 WSW 1019,9 40 13 0,0
18.03.2019 14:00:00 5,9 0,7 6,0 6,7 5,4 6,8 17 9 42 23 WNW 1019,8 36 6 0,0
18.03.2019 13:00:00 6,7 0,7 7,3 6,7 5,2 6,8 19 10 39 21 W 1019,5 47 6 0,1
18.03.2019 12:00:00 5,8 0,5 6,0 6,8 5,1 6,8 27 15 38 21 WSW 1019,1 47 12 0,0
18.03.2019 11:00:00 5,3 2,1 5,9 6,2 4,9 6,8 23 12 34 18 W 1018,7 32 18 0,0
18.03.2019 10:00:00 4,9 2,9 6,0 5,0 4,9 6,8 21 11 32 17 W 1018,2 23 22 0,0
18.03.2019 09:00:00 3,5 2,2 4,1 3,6 4,9 6,8 21 12 29 16 W 1017,6 17 6 0,0
18.03.2019 08:00:00 2,9 1,8 2,9 2,9 5,0 6,8 23 12 34 18 WSW 1016,9 19 0 0,0
18.03.2019 07:00:00 2,7 1,5 2,7 2,6 5,0 6,8 24 13 35 19 W 1016,1 27 0 0,0
18.03.2019 06:00:00 2,3 0,8 2,2 2,2 5,2 6,8 25 13 34 18 WSW 1015,2 43 0 0,0
18.03.2019 05:00:00 1,9 0,2 1,5 1,8 5,4 6,8 20 11 33 18 WSW 1014,5 51 0 0,0
18.03.2019 04:00:00 1,6 0,0 0,4 1,8 5,5 6,8 17 9 30 16 WSW 1013,9 51 0 0,0
18.03.2019 03:00:00 2,0 -0,1 0,9 2,0 5,7 6,8 18 10 28 15 WSW 1013,8 71 0 0,0
18.03.2019 02:00:00 1,9 0,2 0,8 2,4 5,9 6,8 17 9 31 17 SW 1013,5 43 0 0,0
18.03.2019 01:00:00 2,5 0,4 1,5 2,7 6,1 6,8 21 11 33 18 WSW 1012,9 44 0 0,0
18.03.2019 00:00:00 2,5 0,4 1,6 3,0 6,2 6,8 18 10 26 14 WSW 1012,6 48 0 0,0
17.03.2019 23:00:00 2,8 0,3 2,4 3,4 6,4 6,8 19 10 33 18 WSW 1012,6 49 0 0,0
17.03.2019 22:00:00 2,2 -0,1 1,7 3,3 6,7 6,8 14 7 31 17 SW 1011,8 63 0 0,0
17.03.2019 21:00:00 2,2 -0,2 1,2 3,7 6,9 6,8 19 10 34 18 SW 1011,4 75 0 0,0
17.03.2019 20:00:00 2,0 0,6 1,7 4,4 7,0 6,8 22 12 33 18 WSW 1010,8 75 0 0,3
17.03.2019 19:00:00 1,4 0,4 1,0 5,1 7,2 6,8 28 15 59 32 W 1010,3 8 0 0,8
17.03.2019 18:00:00 3,4 1,4 2,9 6,1 7,2 6,8 26 14 51 28 SW 1008,4 32 0 0,5
17.03.2019 17:00:00 5,2 1,5 5,3 7,1 7,2 6,8 15 8 34 19 W 1007,5 75 0 0,0
17.03.2019 16:00:00 5,7 0,4 6,1 7,8 7,1 6,8 26 14 48 26 W 1006,5 75 5 0,0
17.03.2019 15:00:00 7,0 0,9 7,7 9,0 7,0 6,8 20 11 54 29 WNW 1005,4 75 27 0,0
17.03.2019 14:00:00 7,5 0,0 6,9 8,9 6,9 6,8 35 19 60 33 W 1004,5 44 28 0,0
17.03.2019 13:00:00 8,1 0,9 8,8 8,7 6,8 6,8 38 21 58 31 WSW 1004,0 58 34 0,0
17.03.2019 12:00:00 6,9 2,6 7,1 8,1 6,7 6,8 33 18 56 30 W 1003,7 50 21 0,0
17.03.2019 11:00:00 6,5 2,6 6,7 6,9 6,7 6,8 36 19 56 30 W 1003,2 73 0 0,0
17.03.2019 10:00:00 6,2 3,8 6,2 6,3 6,8 6,8 24 13 44 24 SW 1002,5 58 0 0,0
17.03.2019 09:00:00 5,4 2,9 4,8 6,1 6,8 6,8 24 13 56 31 WSW 1001,9 39 0 1,7
17.03.2019 08:00:00 6,8 5,6 6,2 6,4 6,9 6,8 33 18 53 28 SW 1000,3 7 0 1,9
17.03.2019 07:00:00 6,9 5,4 6,1 6,4 6,9 6,8 36 20 54 29 SW 999,6 10 0 1,2
17.03.2019 06:00:00 7,3 4,5 6,5 6,5 6,9 6,8 39 21 58 31 SSW 999,0 17 0 0,0
17.03.2019 05:00:00 8,1 3,9 7,8 6,6 7,0 6,7 44 24 64 34 SSW 999,1 41 0 0,0
17.03.2019 04:00:00 8,7 4,1 8,3 6,7 7,0 6,7 37 20 56 30 SSW 999,3 49 0 0,0
17.03.2019 03:00:00 8,8 4,4 8,4 6,7 7,0 6,7 37 20 61 33 SW 1000,2 61 0 0,0
17.03.2019 02:00:00 9,3 4,4 8,9 6,9 7,0 6,7 41 22 61 33 SW 1000,6 69 0 0,0
17.03.2019 01:00:00 9,3 4,7 8,9 7,0 7,1 6,7 41 22 61 33 SW 1001,4 75 0 0,0
17.03.2019 00:00:00 9,4 5,1 8,9 6,9 7,1 6,7 34 19 57 31 SW 1002,3 69 0 0,0
16.03.2019 23:00:00 9,6 4,9 9,1 6,7 7,2 6,7 36 20 58 32 SSW 1003,0 61 0 0,0
16.03.2019 22:00:00 8,9 4,7 7,9 6,5 7,3 6,7 37 20 62 34 SSW 1003,6 65 0 0,0
16.03.2019 21:00:00 8,8 4,6 7,8 6,7 7,4 6,7 37 20 58 31 SSW 1004,3 51 0 0,0
16.03.2019 20:00:00 8,8 4,5 7,8 7,1 7,4 6,7 30 16 47 26 SW 1005,2 53 0 0,0
16.03.2019 19:00:00 9,2 4,5 8,2 7,7 7,4 6,7 35 19 56 30 SW 1005,3 60 0 0,0
16.03.2019 18:00:00 9,6 4,7 9,1 8,2 7,4 6,7 32 17 58 32 SW 1005,9 63 2 0,0
16.03.2019 17:00:00 9,5 5,2 9,3 8,4 7,4 6,7 32 18 53 29 SW 1006,6 73 0 0,0
16.03.2019 16:00:00 9,5 5,3 9,4 8,5 7,4 6,7 36 19 59 32 SW 1007,4 65 0 0,0
16.03.2019 15:00:00 9,6 4,9 9,6 8,5 7,3 6,7 41 22 69 37 SW 1007,8 69 0 0,0
16.03.2019 14:00:00 9,5 5,4 9,5 8,6 7,3 6,7 39 21 56 31 SW 1008,5 53 0 0,0
16.03.2019 13:00:00 9,3 5,8 9,3 9,0 7,2 6,7 33 18 61 33 WSW 1009,1 53 1 0,0
16.03.2019 12:00:00 9,8 5,6 9,8 9,0 7,1 6,7 34 18 65 35 WSW 1009,4 57 4 0,0
16.03.2019 11:00:00 9,5 7,0 9,6 8,3 7,1 6,7 40 21 59 32 SW 1009,6 71 0 0,0
16.03.2019 10:00:00 9,0 7,3 8,6 7,9 7,0 6,7 35 19 57 31 WSW 1010,3 28 0 0,0
16.03.2019 09:00:00 8,8 7,6 8,3 7,7 7,0 6,7 36 19 63 34 WSW 1010,4 10 0 0,1
16.03.2019 08:00:00 8,7 7,7 8,2 7,7 7,0 6,7 37 20 59 32 WSW 1010,7 17 0 0,7
16.03.2019 07:00:00 8,8 8,1 8,4 7,6 7,0 6,7 43 23 63 34 WSW 1010,2 5 0 0,7
16.03.2019 06:00:00 8,9 8,2 8,5 7,4 7,0 6,7 39 21 59 32 WSW 1009,8 5 0 1,9
16.03.2019 05:00:00 7,1 7,1 7,1 7,1 7,1 6,7 13 7 29 16 WSW 1010,3 0,7 0 1,9
16.03.2019 04:00:00 7,0 6,8 7,0 7,2 7,1 6,7 22 12 33 18 W 1010,9 2,2 0 1,6
16.03.2019 03:00:00 7,2 7,1 7,2 7,3 7,1 6,7 16 9 35 19 W 1011,4 2,7 0 2,3
16.03.2019 02:00:00 7,2 6,9 7,1 7,5 7,1 6,7 24 13 34 19 W 1011,5 7 0 2,3
16.03.2019 01:00:00 7,4 7,1 7,4 7,8 7,1 6,7 22 12 36 19 W 1011,2 5 0 2,2
16.03.2019 00:00:00 8,0 7,4 7,8 8,2 7,1 6,7 27 15 47 25 W 1010,7 4,9 0 1,6
15.03.2019 23:00:00 8,9 8,5 8,7 8,5 7,0 6,8 38 21 63 34 W 1009,8 6 0 2,7
15.03.2019 22:00:00 9,8 9,1 9,5 8,5 6,9 6,8 41 22 71 38 W 1008,8 9 0 3,7
15.03.2019 21:00:00 9,9 9,2 9,5 8,5 6,8 6,8 46 25 71 39 WSW 1007,9 6 0 0,8
15.03.2019 20:00:00 9,9 9,2 9,5 8,5 6,7 6,8 49 26 71 38 WSW 1007,3 4,9 0 1,1
15.03.2019 19:00:00 10,1 9,2 9,6 8,5 6,6 6,8 47 26 78 42 WSW 1006,6 14 0 0,5
15.03.2019 18:00:00 10,2 9,0 9,7 8,6 6,4 6,8 44 24 79 42 WSW 1006,1 42 0 0,7
15.03.2019 17:00:00 10,3 9,1 9,7 8,6 6,3 6,8 46 25 74 40 WSW 1006,1 12 0 0,9
15.03.2019 16:00:00 10,5 8,8 10,3 8,6 6,2 6,8 45 24 68 37 WSW 1006,2 46 0 0,0
15.03.2019 15:00:00 10,3 9,3 9,9 8,5 6,0 6,8 48 26 68 37 WSW 1006,4 6 0 0,0
15.03.2019 14:00:00 10,2 9,0 9,8 8,3 5,8 6,8 41 22 68 37 WSW 1006,1 18 0 0,6
15.03.2019 13:00:00 9,9 9,3 9,8 8,1 5,7 6,8 42 23 66 36 WSW 1006,4 4,1 0 0,4
15.03.2019 12:00:00 9,9 9,3 9,7 7,8 5,5 6,8 44 24 65 35 WSW 1005,6 4,4 0 0,9
15.03.2019 11:00:00 9,7 9,2 9,5 7,3 5,3 6,8 44 24 58 32 WSW 1005,1 4,2 0 1,4
15.03.2019 10:00:00 9,3 8,9 9,1 6,6 5,3 6,9 40 21 60 33 WSW 1004,9 2,3 0 0,8
15.03.2019 09:00:00 8,6 8,0 8,3 5,8 5,2 6,9 36 19 55 30 WSW 1004,5 6 0 0,8
15.03.2019 08:00:00 7,0 6,2 6,6 5,2 5,2 6,9 35 19 56 30 SW 1004,8 5 0 0,9
15.03.2019 07:00:00 6,1 5,3 5,7 5,0 5,2 6,9 23 12 32 17 SW 1006,0 7 0 0,6
15.03.2019 06:00:00 6,3 4,6 5,6 4,8 5,2 6,9 25 14 42 23 SW 1006,5 16 0 0,0
15.03.2019 05:00:00 7,1 3,5 6,5 4,4 5,3 6,9 31 17 50 27 WSW 1007,0 28 0 0,0
15.03.2019 04:00:00 6,4 2,8 5,6 4,2 5,3 6,9 29 16 43 23 WSW 1007,5 35 0 0,0
15.03.2019 03:00:00 5,9 2,3 5,1 4,3 5,4 6,9 28 15 41 22 W 1008,2 46 0 0,0
15.03.2019 02:00:00 6,0 2,4 5,1 4,6 5,4 6,9 30 16 46 25 W 1008,5 40 0 0,0
15.03.2019 01:00:00 6,7 2,9 6,1 4,8 5,5 6,9 29 16 41 22 WSW 1008,2 39 0 0,0
15.03.2019 00:00:00 6,7 2,6 5,9 4,8 5,5 6,9 25 14 35 19 WSW 1007,8 33 0 0,0
14.03.2019 23:00:00 6,7 2,7 5,9 4,9 5,6 6,9 26 14 36 19 WSW 1007,3 32 0 0,0
14.03.2019 22:00:00 6,3 3,0 5,4 5,1 5,6 6,9 24 13 34 18 W 1006,9 32 0 0,0
14.03.2019 21:00:00 7,0 2,8 6,1 5,5 5,6 6,9 25 13 45 25 W 1005,6 40 0 0,0
14.03.2019 20:00:00 8,1 2,8 7,3 5,8 5,6 6,9 30 16 50 27 WNW 1004,2 46 0 0,0
14.03.2019 19:00:00 7,2 3,7 6,1 6,4 5,5 6,9 31 17 75 40 WNW 1002,5 44 0 0,1
14.03.2019 18:00:00 9,4 3,9 8,7 7,0 5,4 6,9 34 18 59 32 W 1000,5 46 4 0,1
14.03.2019 17:00:00 9,5 5,1 8,9 7,3 5,2 6,9 39 21 59 32 W 999,4 50 14 0,0
14.03.2019 16:00:00 9,4 6,7 8,5 6,8 5,1 6,8 37 20 60 33 W 998,6 47 0 0,1
14.03.2019 15:00:00 8,5 7,1 8,3 6,3 5,0 6,8 44 24 70 38 WSW 997,9 74 0 1,5
14.03.2019 14:00:00 7,3 6,6 7,0 5,7 4,9 6,9 39 21 66 35 WSW 998,2 25 0 3,2
14.03.2019 13:00:00 6,1 5,0 5,8 5,1 4,8 6,9 46 25 66 35 SW 999,0 11 0 2,8
14.03.2019 12:00:00 5,0 3,9 4,6 4,9 4,8 6,9 44 24 72 39 SW 1001,1 9 0 2,7
14.03.2019 11:00:00 5,2 4,3 4,9 4,7 4,8 7,0 39 21 62 33 SW 1002,2 8 0 1,9
14.03.2019 10:00:00 4,9 3,8 4,4 4,5 4,8 7,0 42 23 61 33 SW 1003,9 9 0 1,6
14.03.2019 09:00:00 4,7 3,7 4,3 4,4 4,8 7,0 38 21 54 29 SW 1005,5 8 0 1,2
14.03.2019 08:00:00 4,8 3,7 4,3 4,2 4,8 7,0 34 19 51 28 SW 1006,6 10 0 0,6
14.03.2019 07:00:00 5,1 3,2 4,3 4,1 4,8 7,0 31 17 47 25 WSW 1007,7 9 0 0,1
14.03.2019 06:00:00 5,0 2,6 4,6 4,0 4,8 7,0 25 13 39 21 SW 1009,3 25 0 0,0
14.03.2019 05:00:00 5,4 1,9 4,8 4,0 4,8 7,0 26 14 45 25 WSW 1010,2 34 0 0,0
14.03.2019 04:00:00 5,2 2,0 4,7 4,1 4,8 7,0 26 14 41 22 WSW 1011,1 30 0 0,0
14.03.2019 03:00:00 5,4 2,8 4,7 4,1 4,9 7,0 26 14 39 21 WSW 1011,6 33 0 0,3
14.03.2019 02:00:00 5,4 3,1 4,5 4,0 4,9 7,0 26 14 36 20 WSW 1011,7 16 0 0,0
14.03.2019 01:00:00 4,8 2,7 4,3 3,8 4,9 7,0 23 13 33 18 WSW 1011,8 34 0 0,0
14.03.2019 00:00:00 3,5 2,8 3,3 4,0 5,0 7,0 11 6 42 23 WSW 1011,9 49 0 0,5
13.03.2019 23:00:00 3,9 2,4 3,3 4,0 5,0 7,0 27 15 55 30 WNW 1011,6 19 0 1,9
13.03.2019 22:00:00 4,1 2,7 3,6 4,3 5,1 7,0 25 13 48 26 WNW 1010,8 1,8 0 1,2
13.03.2019 21:00:00 5,1 3,1 4,6 4,3 5,1 7,0 27 15 61 33 W 1009,4 42 0 0,8
13.03.2019 20:00:00 5,5 3,5 4,9 4,4 5,2 7,0 29 16 45 24 W 1008,3 30 0 0,0
13.03.2019 19:00:00 4,9 3,1 4,5 4,3 5,2 7,0 26 14 49 26 W 1007,4 46 0 0,0
13.03.2019 18:00:00 3,2 2,0 2,6 4,5 5,2 7,0 24 13 58 32 W 1007,2 20 0 3,1
13.03.2019 17:00:00 5,4 3,6 4,7 5,6 5,1 7,0 27 15 74 40 W 1005,6 40 0 2,9
13.03.2019 16:00:00 6,5 4,2 5,7 6,3 5,0 7,1 40 22 61 33 WSW 1005,1 21 3 0,1
13.03.2019 15:00:00 6,3 4,1 6,3 5,7 4,9 7,1 35 19 57 31 WSW 1005,1 19 0 1,1
13.03.2019 14:00:00 5,1 3,6 4,8 5,6 4,8 7,1 37 20 63 34 SW 1005,4 11 0 0,3
13.03.2019 13:00:00 5,3 3,2 5,4 5,1 4,7 7,1 38 20 64 34 SW 1005,5 43 0 0,0
13.03.2019 12:00:00 4,4 2,7 4,0 4,7 4,7 7,1 35 19 64 35 SW 1006,0 22 0 1,2
13.03.2019 11:00:00 5,4 1,8 5,7 4,7 4,6 7,1 45 24 72 39 SW 1005,9 37 0 0,0
13.03.2019 10:00:00 4,8 1,6 5,0 4,2 4,6 7,1 44 24 67 36 SW 1006,0 42 0 0,0
13.03.2019 09:00:00 4,0 2,2 3,5 3,7 4,6 7,1 46 25 67 36 SW 1006,2 7 0 0,1
13.03.2019 08:00:00 4,1 1,7 3,2 3,4 4,6 7,1 40 22 61 33 SW 1006,7 5 0 0,0
13.03.2019 07:00:00 4,6 0,4 4,3 3,3 4,7 7,1 40 21 58 32 SW 1006,4 37 0 0,0
13.03.2019 06:00:00 4,7 0,4 4,1 3,3 4,7 7,1 37 20 58 32 SW 1006,4 36 0 0,0
13.03.2019 05:00:00 4,7 0,4 4,1 3,2 4,8 7,1 40 22 61 33 SW 1006,3 38 0 0,0
13.03.2019 04:00:00 4,8 0,6 4,1 3,3 4,8 7,1 37 20 60 33 WSW 1006,6 41 0 0,0
13.03.2019 03:00:00 4,5 1,1 3,8 3,4 4,9 7,1 36 19 55 30 SW 1006,7 46 0 0,0

tt = Température de l'air
td = dewpoint
tt 5cm = Température de l'air 5cm
tt -5cm = Température de l'air -5cm
tt -20cm = Température de l'air -20cm
tt -100cm = Température de l'air -100cm
ff = Vitesse du vent
fx = gusts
dd = Direction du vent
ppp = reduced air pressure
vv = visibility
sd = Ensoleillement
rr = Quantités de précipitations

stations d'obs. à proximité